TimeCDT,TemperatureF,Dew PointF,Humidity,Sea Level PressureIn,VisibilityMPH,Wind Direction,Wind SpeedMPH,Gust SpeedMPH,PrecipitationIn,Events,Conditions,WindDirDegrees,DateUTC
12:11 AM,46.4,44.6,93,30.24,0.5,Calm,Calm,-,N/A,Fog,Fog,0,2013-10-29 05:11:00
12:20 AM,44.6,44.6,100,30.24,0.2,Calm,Calm,-,N/A,Fog,Fog,0,2013-10-29 05:20:00
12:28 AM,46.4,44.6,93,30.24,0.8,Calm,Calm,-,N/A,,Mostly Cloudy,0,2013-10-29 05:28:00
12:33 AM,46.4,44.6,93,30.24,2.5,Calm,Calm,-,N/A,,Mostly Cloudy,0,2013-10-29 05:33:00
12:53 AM,46.9,45.0,93,30.24,8.0,Calm,Calm,-,N/A,,Mostly Cloudy,0,2013-10-29 05:53:00
1:03 AM,48.2,44.6,87,30.25,7.0,Calm,Calm,-,N/A,,Overcast,0,2013-10-29 06:03:00
1:10 AM,48.2,46.4,93,30.24,1.5,Calm,Calm,-,N/A,,Overcast,0,2013-10-29 06:10:00
1:28 AM,50.0,48.2,94,30.24,3.0,ESE,5.8,-,N/A,,Overcast,110,2013-10-29 06:28:00
1:53 AM,48.9,48.0,97,30.23,5.0,Calm,Calm,-,0.00,,Mostly Cloudy,0,2013-10-29 06:53:00
2:50 AM,46.4,46.4,100,30.24,1.8,South,3.5,-,N/A,,Scattered Clouds,180,2013-10-29 07:50:00
2:53 AM,46.9,46.0,97,30.24,1.2,Calm,Calm,-,N/A,,Scattered Clouds,0,2013-10-29 07:53:00
3:05 AM,46.4,46.4,100,30.23,0.8,Calm,Calm,-,N/A,,Partly Cloudy,0,2013-10-29 08:05:00
3:14 AM,48.2,46.4,93,30.23,2.0,Calm,Calm,-,N/A,,Partly Cloudy,0,2013-10-29 08:14:00
3:20 AM,46.4,46.4,100,30.24,0.8,Calm,Calm,-,N/A,,Partly Cloudy,0,2013-10-29 08:20:00
3:33 AM,48.2,46.4,93,30.24,0.2,Calm,Calm,-,N/A,Fog,Fog,0,2013-10-29 08:33:00
3:40 AM,48.2,46.4,93,30.25,0.8,Calm,Calm,-,N/A,,Mostly Cloudy,0,2013-10-29 08:40:00
3:43 AM,48.2,46.4,93,30.25,2.0,Calm,Calm,-,N/A,,Mostly Cloudy,0,2013-10-29 08:43:00
3:53 AM,48.0,46.9,96,30.24,2.0,Calm,Calm,-,N/A,,Mostly Cloudy,0,2013-10-29 08:53:00
4:02 AM,48.2,46.4,93,30.24,1.0,Calm,Calm,-,N/A,,Overcast,0,2013-10-29 09:02:00
4:08 AM,48.2,46.4,93,30.24,3.0,Calm,Calm,-,N/A,,Overcast,0,2013-10-29 09:08:00
4:14 AM,48.2,46.4,93,30.24,1.8,Calm,Calm,-,N/A,,Overcast,0,2013-10-29 09:14:00
4:35 AM,50.0,48.2,94,30.24,2.5,Calm,Calm,-,N/A,,Overcast,0,2013-10-29 09:35:00
4:42 AM,50.0,48.2,94,30.25,5.0,Calm,Calm,-,N/A,,Overcast,0,2013-10-29 09:42:00
4:53 AM,50.0,48.0,93,30.25,6.0,Calm,Calm,-,N/A,,Overcast,0,2013-10-29 09:53:00
5:06 AM,50.0,48.2,94,30.25,1.8,Calm,Calm,-,N/A,,Overcast,0,2013-10-29 10:06:00
5:20 AM,51.8,48.2,88,30.25,3.0,Calm,Calm,-,N/A,,Overcast,0,2013-10-29 10:20:00
5:53 AM,52.0,50.0,93,30.26,5.0,Calm,Calm,-,N/A,,Overcast,0,2013-10-29 10:53:00
6:53 AM,54.0,52.0,93,30.25,8.0,Calm,Calm,-,N/A,,Overcast,0,2013-10-29 11:53:00
7:53 AM,53.1,52.0,96,30.24,5.0,East,3.5,-,N/A,,Clear,90,2013-10-29 12:53:00
8:53 AM,57.0,55.0,93,30.25,6.0,Calm,Calm,-,N/A,,Mostly Cloudy,0,2013-10-29 13:53:00
9:53 AM,61.0,57.0,87,30.27,8.0,ESE,3.5,-,N/A,,Clear,110,2013-10-29 14:53:00
10:53 AM,63.0,57.9,84,30.25,10.0,Calm,Calm,-,N/A,,Clear,0,2013-10-29 15:53:00
11:53 AM,66.0,59.0,78,30.22,10.0,Variable,3.5,-,N/A,,Clear,0,2013-10-29 16:53:00
12:53 PM,69.1,59.0,70,30.21,10.0,SSE,4.6,-,N/A,,Clear,160,2013-10-29 17:53:00
1:53 PM,70.0,60.1,71,30.17,10.0,South,5.8,-,N/A,,Mostly Cloudy,180,2013-10-29 18:53:00
2:53 PM,70.0,61.0,73,30.15,10.0,SSE,3.5,-,N/A,,Partly Cloudy,160,2013-10-29 19:53:00
3:53 PM,71.1,62.1,73,30.14,10.0,South,3.5,-,N/A,,Clear,170,2013-10-29 20:53:00
4:53 PM,72.0,63.0,73,30.13,10.0,South,3.5,-,N/A,,Mostly Cloudy,170,2013-10-29 21:53:00
5:02 PM,71.6,62.6,73,30.14,10.0,South,4.6,-,N/A,,Mostly Cloudy,170,2013-10-29 22:02:00
5:20 PM,71.6,62.6,73,30.14,10.0,Calm,Calm,-,N/A,,Scattered Clouds,0,2013-10-29 22:20:00
5:53 PM,69.1,63.0,81,30.14,10.0,SSE,3.5,-,N/A,,Partly Cloudy,160,2013-10-29 22:53:00
6:53 PM,66.0,62.1,87,30.15,10.0,Calm,Calm,-,N/A,,Mostly Cloudy,0,2013-10-29 23:53:00
7:53 PM,66.0,63.0,90,30.15,10.0,SSE,3.5,-,N/A,,Mostly Cloudy,150,2013-10-30 00:53:00
8:53 PM,64.0,62.1,93,30.15,9.0,SSE,4.6,-,N/A,,Mostly Cloudy,160,2013-10-30 01:53:00
9:53 PM,66.9,62.1,84,30.15,10.0,South,6.9,-,N/A,,Scattered Clouds,190,2013-10-30 02:53:00
10:53 PM,66.9,61.0,81,30.16,10.0,South,6.9,-,N/A,,Scattered Clouds,190,2013-10-30 03:53:00
11:53 PM,66.0,60.1,81,30.16,10.0,South,5.8,-,N/A,,Mostly Cloudy,190,2013-10-30 04:53:00